Wind_Speed
7 8 8 9 9 10 10 11 12 12 13 13 14 14 15 15 16 16 17 18 18 19 20 21 22 23 24 25 27 28 29 30 30 31 31 32 33 33
9 10 10 11 11 12 12 13 13 14 14 15 15 16 16 17 17 18 19 19 19 20 20 21 22 23 24 25 27 28 30 31 32 32 32 33 34 35
11 11 12 13 13 14 14 14 15 15 16 17 17 18 18 18 19 20 20 21 21 21 21 22 22 23 24 25 26 28 30 31 33 34 35 35 36 37
12 13 14 15 15 16 16 16 17 17 18 18 19 19 20 20 21 21 22 23 23 23 23 23 24 25 25 26 27 28 30 31 33 34 36 37 38 39
15 16 16 17 18 18 18 18 19 19 20 20 21 21 21 22 23 23 23 24 24 25 25 26 26 27 27 28 28 29 30 31 33 34 35 37 38 39
18 18 18 19 20 20 20 21 21 21 22 22 22 23 24 24 25 25 26 26 26 26 27 28 28 29 29 30 31 31 32 32 33 34 35 36 38 39
20 20 21 21 22 22 22 23 23 23 24 24 24 25 26 26 27 27 28 28 28 29 29 30 30 31 32 32 33 33 34 34 34 35 36 37 38 38
22 22 23 24 24 24 25 25 25 26 26 26 27 27 28 29 29 30 30 30 30 32 32 33 33 33 34 35 35 35 36 36 37 37 37 38 39 39
24 25 25 26 26 26 27 27 28 28 28 28 29 29 30 31 31 32 32 32 33 34 35 35 37 37 38 38 38 37 38 38 38 39 39 39 40 40
26 27 27 28 28 28 28 29 30 30 31 30 31 31 32 33 34 34 35 35 35 36 37 37 38 39 40 41 41 41 41 41 41 41 41 41 41 41
28 29 29 29 30 30 30 31 31 32 33 33 34 34 35 36 37 37 38 38 38 39 40 41 41 41 42 43 44 44 43 43 43 43 43 43 42 42
30 31 31 32 32 33 32 33 33 34 35 36 37 37 38 39 40 41 42 42 42 42 44 45 45 45 44 44 46 46 46 46 45 45 44 44 44 44
32 33 34 34 34 35 35 35 36 37 38 38 39 40 41 42 44 45 45 46 46 46 48 49 49 49 49 47 46 47 48 48 47 47 46 45 45 45
34 35 35 36 36 37 38 39 39 39 40 41 42 43 44 45 46 47 48 49 50 51 51 52 52 51 51 49 47 47 48 48 48 47 47 46 46 45
36 36 37 38 39 40 41 42 42 43 43 44 44 45 46 48 49 50 51 52 52 53 54 55 54 53 51 49 47 47 47 47 48 48 47 46 46 46
37 38 39 40 41 41 43 44 45 46 46 47 47 48 49 51 52 53 53 54 54 54 55 55 55 53 51 49 48 47 46 46 46 47 46 45 45 46
39 40 41 42 43 44 45 46 47 48 49 50 51 52 53 54 54 55 55 56 55 55 54 53 53 53 51 49 47 45 44 44 44 44 44 43 42 43
42 42 43 44 45 46 47 48 49 50 51 52 53 54 55 55 55 55 55 55 55 54 53 51 51 50 49 47 45 44 43 42 41 41 41 41 39 39
43 43 44 45 47 48 49 50 50 52 53 54 55 56 56 56 55 54 54 54 54 52 50 48 48 48 47 45 43 43 42 40 39 39 39 38 37 37
44 45 46 48 49 50 50 52 53 55 55 56 56 56 55 55 54 53 53 52 50 49 47 46 46 45 45 43 41 40 40 40 39 38 37 37 36 36
47 47 48 49 50 51 52 53 54 55 55 55 55 54 54 53 53 52 51 50 48 47 45 44 43 43 42 41 39 37 37 38 38 37 37 37 36 35
48 49 50 51 52 53 54 54 55 55 55 54 53 53 52 52 52 51 50 49 47 46 45 43 42 41 40 39 37 36 35 35 36 36 36 35 34 33
50 51 52 53 54 54 55 55 55 54 53 53 53 52 52 52 51 49 47 46 45 43 43 41 39 39 37 36 35 34 33 33 33 34 34 33 33 32
Wind_Direction
291 297 301 302 304 305 305 305 306 307 308 307 307 307 306 306 306 304 302 300 298 296 292 288 284 281 277 274 272 269 268 267 266 264 261 257 253 253
289 293 296 298 298 299 300 301 301 302 303 304 305 305 305 304 304 304 303 300 299 297 295 292 289 285 282 279 275 272 269 268 267 266 263 260 258 256
288 291 293 294 295 295 297 297 297 298 299 301 302 302 302 302 303 303 302 301 299 297 295 293 292 290 287 284 280 277 273 271 268 267 265 264 262 260
287 290 292 293 295 296 297 297 297 297 298 300 301 301 301 301 302 303 302 300 298 296 295 293 292 291 289 288 285 281 278 274 272 269 267 265 263 262
287 289 291 293 294 295 295 296 296 296 297 298 299 300 300 300 301 302 302 301 299 296 295 294 293 292 290 289 288 286 282 278 275 272 270 267 265 263
289 290 291 292 293 293 294 294 294 295 296 297 297 298 298 299 300 300 301 300 299 297 295 294 292 292 291 290 289 287 284 282 279 275 272 270 268 265
288 289 290 291 292 292 293 294 294 295 295 296 296 296 297 298 300 301 300 300 299 297 295 294 293 292 292 291 290 288 285 283 281 279 275 272 270 268
289 289 290 290 290 290 291 292 293 294 294 295 295 295 296 297 299 300 299 298 297 297 296 295 294 294 292 292 291 288 286 283 282 280 278 275 271 269
288 289 290 291 290 291 291 292 293 293 294 294 295 295 296 296 298 299 299 298 297 296 295 295 294 294 293 292 291 289 287 285 283 281 279 277 273 270
288 289 291 291 291 292 293 293 293 293 294 295 295 294 293 294 295 297 297 298 297 296 295 295 294 293 293 292 291 289 288 286 284 281 280 278 274 271
289 290 291 292 292 293 293 293 292 292 293 294 295 294 294 295 295 296 296 296 296 296 295 295 294 293 292 292 290 289 288 286 284 282 280 278 275 272
287 289 290 291 293 293 293 292 292 292 293 294 294 295 295 295 296 296 296 296 296 296 296 295 294 293 291 290 290 289 287 286 284 283 281 279 276 273
287 288 289 291 292 292 291 292 292 293 293 293 294 294 294 295 296 296 296 296 296 296 296 295 294 293 291 289 288 287 286 285 283 282 281 278 276 273
286 287 289 290 291 291 291 292 292 293 293 293 293 294 294 294 295 295 296 296 296 296 296 295 294 293 291 290 287 286 285 284 283 282 280 278 276 274
286 287 289 289 289 290 292 292 292 293 293 294 294 294 294 295 295 296 296 295 296 296 296 295 294 293 291 290 287 285 284 283 283 282 280 279 276 274
286 288 290 290 289 290 290 291 292 293 294 294 294 295 295 295 295 295 296 296 296 296 296 294 293 292 291 289 288 287 284 283 281 280 280 279 276 274
286 288 289 290 290 290 290 291 292 293 294 295 296 296 296 296 296 296 296 296 296 296 295 293 292 292 291 290 289 288 285 283 282 280 279 278 276 273
286 287 289 290 291 291 291 292 293 294 296 296 296 296 297 297 297 296 297 297 297 296 295 293 291 290 290 290 289 288 286 284 281 280 279 278 276 273
288 288 289 290 291 292 292 293 293 294 295 296 296 296 297 297 297 297 297 298 298 297 295 294 292 291 289 288 287 287 286 284 282 280 279 278 276 273
288 289 290 291 292 292 292 293 293 294 295 296 296 297 297 296 296 297 298 298 297 297 295 294 292 292 291 288 286 286 285 284 281 280 278 276 275 273
288 289 290 291 292 292 292 293 294 295 296 296 297 296 296 297 296 297 298 297 297 297 296 293 292 292 292 289 287 285 284 283 281 280 279 277 275 273
288 289 290 290 291 293 294 294 295 295 296 297 297 297 297 297 298 297 297 297 297 296 295 294 292 292 292 290 288 286 284 283 282 281 280 278 275 274
289 289 290 290 292 293 294 295 295 295 296 297 298 298 297 297 297 297 298 297 297 296 296 295 293 292 291 290 287 285 284 283 282 281 280 278 278 276
Height
5867 5867 5866 5866 5865 5864 5863 5862 5861 5860 5859 5857 5856 5854 5853 5852 5850 5849 5848 5846 5845 5844 5843 5841 5840 5840 5839 5839 5839 5839 5839 5839 5839 5840 5841 5842 5843 5844
5865 5865 5864 5863 5863 5862 5860 5859 5858 5857 5856 5854 5853 5851 5849 5848 5846 5845 5843 5842 5840 5839 5837 5836 5835 5834 5833 5832 5832 5832 5832 5832 5832 5832 5833 5833 5835 5836
5863 5862 5862 5861 5860 5859 5857 5856 5855 5854 5852 5851 5849 5847 5846 5844 5842 5840 5839 5837 5835 5834 5832 5831 5829 5828 5827 5826 5825 5824 5824 5824 5824 5824 5824 5825 5826 5827
5860 5859 5858 5857 5856 5855 5854 5852 5851 5850 5848 5846 5845 5843 5841 5839 5837 5835 5833 5832 5830 5828 5826 5825 5823 5822 5820 5819 5818 5817 5816 5815 5815 5815 5815 5816 5816 5817
5856 5856 5855 5853 5852 5851 5850 5848 5847 5845 5843 5842 5840 5838 5836 5834 5832 5830 5828 5826 5824 5822 5820 5819 5817 5815 5813 5812 5810 5809 5808 5807 5806 5806 5805 5806 5806 5807
5852 5851 5850 5849 5848 5846 5845 5843 5842 5840 5838 5837 5835 5833 5831 5829 5827 5824 5822 5820 5817 5815 5813 5811 5810 5808 5806 5804 5802 5801 5799 5798 5796 5796 5795 5795 5795 5796
5848 5846 5845 5844 5842 5841 5839 5838 5836 5834 5833 5831 5829 5827 5824 5822 5820 5818 5815 5813 5810 5808 5806 5804 5802 5800 5797 5795 5793 5791 5790 5788 5787 5786 5785 5784 5784 5785
5842 5841 5840 5838 5836 5835 5833 5831 5830 5828 5826 5824 5822 5820 5818 5815 5813 5811 5808 5806 5803 5800 5798 5795 5792 5790 5788 5786 5784 5782 5780 5778 5776 5775 5774 5773 5773 5773
5837 5835 5834 5832 5830 5828 5827 5825 5823 5821 5819 5817 5815 5813 5810 5807 5805 5802 5800 5797 5795 5791 5789 5786 5783 5780 5777 5775 5773 5771 5769 5767 5765 5764 5762 5761 5761 5760
5830 5829 5827 5825 5823 5821 5820 5818 5815 5813 5811 5809 5807 5805 5802 5799 5796 5794 5791 5788 5785 5781 5778 5776 5773 5770 5767 5764 5761 5759 5757 5755 5753 5751 5750 5749 5748 5748
5823 5822 5820 5818 5816 5814 5812 5810 5808 5805 5802 5800 5798 5795 5792 5789 5786 5784 5781 5777 5775 5771 5767 5764 5762 5758 5755 5752 5748 5745 5743 5741 5739 5738 5736 5735 5734 5734
5816 5814 5812 5810 5808 5806 5803 5801 5799 5796 5794 5791 5788 5785 5782 5778 5775 5772 5769 5766 5763 5760 5755 5751 5749 5745 5743 5740 5735 5732 5729 5727 5725 5723 5722 5721 5720 5719
5807 5805 5803 5801 5799 5796 5794 5792 5789 5787 5784 5781 5778 5775 5771 5767 5763 5760 5756 5753 5749 5746 5742 5738 5734 5730 5727 5726 5723 5718 5714 5712 5709 5708 5706 5705 5705 5704
5799 5796 5794 5792 5789 5787 5784 5781 5778 5776 5773 5770 5767 5763 5759 5756 5752 5747 5743 5739 5735 5732 5727 5722 5719 5715 5712 5709 5707 5704 5699 5696 5694 5692 5691 5690 5689 5689
5789 5787 5784 5782 5779 5776 5773 5770 5767 5764 5760 5757 5754 5751 5747 5743 5738 5734 5730 5725 5721 5716 5711 5706 5702 5698 5695 5692 5691 5688 5685 5681 5678 5676 5675 5674 5674 5673
5779 5777 5774 5771 5768 5765 5762 5758 5754 5751 5748 5744 5740 5737 5733 5729 5724 5719 5715 5710 5706 5701 5695 5689 5684 5681 5678 5676 5673 5671 5668 5666 5663 5660 5659 5659 5658 5657
5768 5766 5763 5760 5756 5753 5750 5746 5742 5738 5734 5730 5726 5722 5718 5714 5709 5703 5698 5693 5689 5685 5680 5673 5667 5664 5661 5659 5657 5655 5652 5650 5648 5645 5644 5644 5643 5642
5757 5754 5751 5748 5744 5741 5737 5733 5729 5725 5721 5716 5712 5707 5702 5698 5693 5687 5681 5676 5672 5667 5663 5658 5653 5649 5646 5644 5642 5639 5637 5635 5633 5631 5630 5629 5630 5628
5745 5742 5739 5736 5732 5728 5724 5720 5716 5711 5706 5702 5697 5691 5686 5682 5677 5672 5666 5660 5655 5650 5646 5642 5637 5633 5631 5630 5629 5624 5622 5620 5619 5618 5616 5616 5616 5615
5733 5730 5726 5723 5719 5715 5711 5707 5702 5697 5692 5686 5681 5676 5671 5666 5661 5656 5650 5645 5640 5635 5631 5627 5622 5618 5615 5615 5614 5613 5609 5606 5605 5604 5603 5602 5602 5602
5720 5717 5713 5709 5705 5701 5697 5692 5687 5682 5676 5671 5665 5660 5655 5650 5645 5640 5635 5630 5625 5620 5617 5614 5609 5605 5602 5600 5600 5599 5597 5593 5592 5591 5590 5590 5590 5590
5707 5703 5699 5695 5691 5687 5682 5677 5671 5666 5661 5656 5650 5645 5640 5634 5630 5625 5620 5615 5611 5607 5603 5600 5596 5593 5590 5588 5586 5586 5584 5582 5580 5579 5578 5578 5577 5578
5693 5689 5685 5681 5676 5672 5667 5661 5656 5651 5645 5641 5636 5630 5625 5620 5615 5610 5606 5601 5597 5593 5590 5587 5584 5581 5578 5576 5574 5573 5572 5571 5569 5568 5567 5566 5566 5566